User: anonymous   Login
Location: Unspecified
(0.0000°N, 0.0000°E)
Time: 16:39:07
(UTC+00:00)
Language:

COSMOS 2453 - Orbit

View from above orbital plane
View from above orbital plane
View from above satellite
View from above satellite

Ground track
Ground track

The orbit data is extracted from the following two-line orbital elements,

1 35500U 09036C   17204.93728615 +.00000033 +00000-0 +16948-3 0  9993
2 35500 082.4908 306.9197 0007440 045.2914 314.8770 12.41452075364791
Epoch (UTC): 23 July 2017 22:29:41
Eccentricity: 0.0007440
inclination: 82.4908°
perigee height: 1494 km
apogee height: 1506 km
right ascension of ascending node: 306.9197°
argument of perigee: 45.2914°
revolutions per day: 12.41452075
mean anomaly at epoch: 314.8770°
orbit number at epoch: 36479

The dashed part of the orbit path shows where the satellite is in the earth's shadow,  

DLR